Satellite-Ground Cal/Val Region Overpasses Predictions

Prediction of Satellite NPP Overpassing Cal/Val Region: PacNW

Region Location: (Latitude: 10.00, Longitude: 139.50) to (Latitude: 22.70, Longitude: 165.60).

Table of predicted overpasses for the next 14.0 days since TLE Epoch: 2/8/2013
Interval Starting Time Starting Location Ending Time Ending Location
1 02/08/2013 03:41:02 ( 10.05, 144.02) 02/08/2013 03:44:37 ( 22.68, 141.01)
2 02/08/2013 14:32:38 ( 18.41, 165.59) 02/08/2013 14:35:01 ( 10.01, 163.63)
3 02/08/2013 16:12:55 ( 22.69, 141.27) 02/08/2013 16:14:59 ( 15.41, 139.50)
4 02/09/2013 03:22:01 ( 10.01, 148.78) 02/09/2013 03:25:37 ( 22.69, 145.76)
5 02/09/2013 15:53:54 ( 22.67, 146.02) 02/09/2013 15:57:29 ( 10.05, 143.01)
6 02/10/2013 03:03:00 ( 10.03, 153.53) 02/10/2013 03:06:35 ( 22.65, 150.53)
7 02/10/2013 15:34:54 ( 22.66, 150.77) 02/10/2013 15:38:29 ( 10.04, 147.76)
8 02/11/2013 02:44:00 ( 10.05, 158.28) 02/11/2013 02:47:35 ( 22.67, 155.28)
9 02/11/2013 15:15:52 ( 22.70, 155.53) 02/11/2013 15:19:28 ( 10.02, 152.51)
10 02/12/2013 02:24:58 ( 10.01, 163.05) 02/12/2013 02:28:34 ( 22.69, 160.03)
11 02/12/2013 14:56:52 ( 22.68, 160.28) 02/12/2013 15:00:27 ( 10.06, 157.28)
12 02/13/2013 02:08:38 ( 19.42, 165.59) 02/13/2013 02:09:33 ( 22.65, 164.79)
13 02/13/2013 03:47:28 ( 10.03, 142.42) 02/13/2013 03:50:57 ( 22.30, 139.51)
14 02/13/2013 14:37:51 ( 22.65, 165.03) 02/13/2013 14:41:26 ( 10.03, 162.03)
15 02/13/2013 16:19:21 ( 22.65, 139.66) 02/13/2013 16:19:31 ( 22.07, 139.51)
16 02/14/2013 03:28:27 ( 10.05, 147.17) 02/14/2013 03:32:02 ( 22.67, 144.17)
17 02/14/2013 16:00:20 ( 22.69, 144.42) 02/14/2013 16:03:56 ( 10.01, 141.40)
18 02/15/2013 03:09:26 ( 10.02, 151.93) 02/15/2013 03:13:02 ( 22.70, 148.91)
19 02/15/2013 15:41:20 ( 22.66, 149.17) 02/15/2013 15:44:54 ( 10.04, 146.16)
20 02/16/2013 02:50:25 ( 10.04, 156.68) 02/16/2013 02:54:00 ( 22.67, 153.68)
21 02/16/2013 15:22:18 ( 22.70, 153.93) 02/16/2013 15:25:54 ( 10.02, 150.91)
22 02/17/2013 02:31:24 ( 10.01, 161.44) 02/17/2013 02:35:00 ( 22.69, 158.43)
23 02/17/2013 15:03:18 ( 22.67, 158.68) 02/17/2013 15:06:53 ( 10.05, 155.68)
24 02/18/2013 02:13:07 ( 12.63, 165.60) 02/18/2013 02:15:58 ( 22.66, 163.19)
25 02/18/2013 03:53:53 ( 10.04, 140.82) 02/18/2013 03:55:29 ( 15.68, 139.51)
26 02/18/2013 14:44:16 ( 22.70, 163.44) 02/18/2013 14:47:52 ( 10.02, 160.42)
27 02/19/2013 03:34:52 ( 10.02, 145.58) 02/19/2013 03:38:28 ( 22.70, 142.56)
28 02/19/2013 14:28:21 ( 11.81, 165.59) 02/19/2013 14:28:51 ( 10.05, 165.19)
29 02/19/2013 16:06:46 ( 22.67, 142.81) 02/19/2013 16:10:21 ( 10.05, 139.81)
30 02/20/2013 03:15:51 ( 10.05, 150.33) 02/20/2013 03:19:26 ( 22.67, 147.32)
31 02/20/2013 15:47:44 ( 22.69, 147.58) 02/20/2013 15:51:20 ( 10.02, 144.56)
32 02/21/2013 02:56:50 ( 10.02, 155.09) 02/21/2013 03:00:25 ( 22.65, 152.08)


NCC Satellite Cal/Val Overpasses Prediction Service
